Temperature
22 22 21 21 20 21 22 24 25 24 24 24 24 23 22 21 21 19 19 19 20 20 19 19 19 19 19 19 19 19 19 19 19 19 19 19 19 19 19 19 19 19 19 19 19 19 19 19 18
23 22 21 21 21 21 23 24 25 25 24 24 24 23 22 21 20 19 19 20 20 20 19 19 19 19 19 19 19 19 19 19 19 19 19 19 19 19 19 19 19 19 19 19 19 19 19 19 19
22 22 21 20 21 22 24 25 25 25 25 24 24 23 22 21 20 20 20 20 20 20 20 19 19 19 19 19 19 19 19 19 19 19 19 19 19 19 19 19 19 19 19 19 19 19 19 18 18
23 22 22 21 23 24 25 25 26 25 25 24 23 22 22 21 21 21 20 20 20 20 20 20 19 19 19 19 19 19 19 19 19 19 19 19 19 19 19 19 19 19 19 19 19 19 18 18 18
23 22 21 22 24 25 26 26 26 25 25 24 23 22 21 21 21 21 21 20 20 20 20 20 19 19 19 19 19 19 19 19 19 19 19 19 19 19 19 19 19 19 19 19 19 19 19 19 19
23 22 22 22 25 26 26 26 26 25 24 23 22 21 21 21 21 21 21 20 20 20 20 19 19 19 19 19 19 19 19 19 19 19 19 19 19 19 19 19 19 19 19 19 19 19 19 19 18
23 22 22 23 24 26 26 27 26 25 24 24 23 21 21 20 21 21 21 20 20 20 20 20 19 19 19 19 19 19 19 19 19 19 19 19 19 19 19 19 19 19 19 19 19 19 19 19 18
25 22 23 24 25 26 27 27 26 26 25 24 23 21 21 20 20 20 20 20 20 20 20 20 20 20 19 19 19 19 19 19 19 19 19 19 19 19 19 19 19 19 19 19 19 19 19 18 18
26 22 22 24 26 26 27 27 26 26 25 24 24 23 22 21 21 20 20 20 20 20 20 20 20 19 19 19 19 19 19 19 19 19 19 19 19 19 19 19 19 19 19 19 19 19 19 18 18
25 22 24 26 26 27 27 27 27 25 24 23 23 23 22 21 21 21 20 20 20 20 20 20 20 19 19 19 19 19 19 19 19 19 19 19 19 19 19 19 19 19 19 19 19 19 19 19 19
25 24 26 27 28 28 28 27 27 25 24 23 23 22 22 21 21 21 21 21 20 20 20 20 20 19 19 19 19 19 19 19 19 19 19 19 19 19 19 19 19 19 19 19 18 18 19 19 19
26 27 28 28 29 29 28 28 26 25 25 24 24 23 22 22 21 21 21 21 20 20 20 20 20 20 19 19 19 19 19 19 19 19 19 19 19 19 19 19 19 19 19 19 18 19 19 19 19
27 27 29 29 29 29 28 27 26 25 25 24 24 23 22 22 22 22 22 21 21 21 20 20 20 20 20 19 19 19 19 19 19 19 19 19 19 19 19 19 19 19 19 19 19 19 19 19 19
28 28 29 29 29 29 28 27 26 25 24 24 23 23 23 22 22 22 21 21 21 21 21 20 20 20 20 20 20 19 19 19 19 19 19 19 19 19 19 19 19 19 19 19 19 19 19 19 19
29 27 28 28 29 28 27 26 25 25 25 24 23 23 23 23 22 22 22 22 21 21 21 21 20 20 20 20 20 19 19 19 19 19 19 19 19 19 19 19 19 19 19 19 19 18 18 19 19
27 26 26 28 28 28 27 25 25 25 25 24 24 23 23 23 23 23 22 22 22 21 21 21 20 20 20 20 20 19 19 19 19 19 19 19 19 19 19 19 19 19 19 19 19 18 18 18 19
26 25 26 27 28 28 27 25 25 26 25 24 24 24 24 23 23 23 23 22 22 22 21 21 21 20 20 20 20 20 19 19 19 19 19 19 19 19 19 19 19 19 19 19 18 18 18 18 19
25 26 27 27 28 28 26 25 25 26 25 25 24 24 24 23 23 23 23 22 22 22 21 21 21 21 20 20 20 20 19 19 19 19 19 19 19 19 19 19 19 19 19 18 18 18 18 18 18
27 26 27 28 28 27 26 25 25 25 25 24 24 24 24 23 23 23 23 22 22 22 21 21 21 21 20 20 20 20 20 19 19 19 19 19 19 19 19 19 19 19 19 19 18 18 18 18 18
27 26 27 28 28 27 25 25 25 25 25 25 24 24 24 23 23 23 23 22 22 22 21 21 21 21 21 20 20 20 20 19 19 19 19 19 19 19 19 19 19 19 19 19 19 19 18 18 18
27 26 27 27 28 27 26 25 24 25 25 25 25 24 24 24 23 23 23 22 22 22 22 21 21 21 21 20 20 20 19 19 19 19 19 19 19 19 19 19 19 19 19 19 19 19 18 18 18
27 28 28 28 26 24 25 23 24 24 24 24 24 24 24 24 24 23 23 23 22 22 22 21 21 21 21 20 20 20 20 20 20 19 19 19 19 19 19 19 19 19 19 19 19 18 18 18 18
27 28 28 28 26 24 24 23 23 23 23 23 23 24 24 24 24 24 23 23 23 22 22 21 21 21 21 20 20 20 20 20 20 19 19 19 19 19 19 19 19 19 19 18 18 18 18 18 18
29 27 26 24 23 23 23 23 22 22 23 24 24 24 24 24 24 24 24 23 23 22 22 22 21 21 21 21 20 20 20 20 20 19 19 19 19 19 19 19 19 19 18 18 18 18 18 18 18
27 24 23 23 22 22 22 23 22 24 24 24 24 24 25 24 24 24 24 23 23 22 22 22 21 21 21 21 20 20 20 20 20 19 19 19 19 19 19 19 19 18 18 18 18 18 18 18 18
26 24 23 23 23 22 22 22 23 25 25 25 25 25 25 24 24 24 24 24 23 23 22 22 22 21 21 21 21 20 20 20 19 19 19 19 19 19 19 19 19 18 18 18 18 18 18 18 18
27 25 23 22 22 22 22 23 24 24 24 24 24 24 24 24 24 24 24 24 23 23 23 22 22 22 21 21 20 20 20 20 20 19 19 19 19 19 19 19 18 18 18 18 18 18 17 17 17
26 25 22 22 22 22 22 23 22 23 23 23 23 23 23 24 24 24 24 24 23 23 23 22 22 22 22 21 21 20 20 20 20 19 19 19 19 19 19 18 18 18 18 18 18 18 17 17 17
26 25 22 20 21 21 22 22 23 23 23 23 22 23 23 23 23 24 23 24 23 23 23 22 22 22 21 21 21 20 20 20 19 19 19 19 19 19 18 18 18 18 18 18 17 17 17 17 17
26 25 22 22 22 20 20 21 24 22 22 23 23 23 24 24 24 23 23 23 23 23 23 22 22 22 21 21 21 20 20 20 19 19 19 19 19 18 18 18 18 18 18 18 18 17 17 17 17
Wind_Speed
10 8 3 1 2 3 3 4 6 7 6 7 10 10 9 7 5 6 4 10 11 9 9 12 14 15 15 14 14 14 15 16 17 16 16 16 15 15 14 14 13 12 11 11 10 9 9 8 8
7 5 1 1 3 4 3 4 9 11 11 11 11 11 9 7 7 10 7 11 12 10 10 12 15 15 15 15 14 15 16 16 16 16 15 15 14 13 13 12 11 11 10 10 9 8 7 7 7
5 3 1 2 2 3 4 5 10 12 11 8 6 7 6 6 8 7 9 14 11 9 10 13 15 15 15 15 15 15 16 16 15 15 14 13 13 12 12 11 11 10 9 9 8 7 6 6 5
2 1 1 2 2 2 5 6 11 12 9 8 8 7 5 6 7 11 15 15 13 9 11 13 15 15 16 15 15 15 15 15 14 14 14 13 12 12 11 10 10 9 9 8 7 6 5 4 3
2 2 3 2 2 4 6 8 10 10 7 9 10 8 5 5 15 18 16 15 13 9 10 13 15 15 15 15 15 15 14 14 14 13 12 12 11 11 10 9 9 8 8 7 6 5 4 4 3
1 2 3 2 3 4 5 8 11 14 13 11 11 9 4 9 16 17 16 13 12 11 9 12 15 15 15 15 14 14 13 13 12 12 11 11 10 10 9 8 8 7 7 7 6 6 5 4 4
2 2 2 3 2 3 5 7 11 12 12 8 9 7 6 8 12 15 14 13 11 10 9 9 11 13 14 14 14 13 13 12 11 11 10 10 9 9 8 8 7 7 7 7 7 6 6 5 5
4 3 1 2 3 4 6 7 10 13 10 12 8 8 8 10 13 14 12 11 10 9 8 7 8 10 11 12 13 13 12 11 11 10 10 10 9 8 8 8 7 7 8 7 7 6 6 5 5
3 3 1 3 4 5 6 9 8 9 11 6 5 8 12 17 16 14 11 9 9 9 8 7 7 8 9 10 11 12 12 11 10 9 9 8 6 7 7 8 8 8 8 8 8 7 6 5 6
4 3 6 5 5 5 8 11 10 8 11 9 11 12 15 16 15 15 14 12 11 11 9 8 8 8 9 9 9 9 9 9 8 7 6 5 6 6 7 8 9 9 9 9 8 7 6 6 5
5 6 4 5 6 6 7 9 8 11 9 14 18 18 17 15 13 13 13 12 12 12 11 9 9 9 8 6 7 7 7 7 7 7 7 6 5 5 5 5 6 6 7 6 5 5 6 6 6
4 5 6 5 5 6 7 8 8 8 10 16 19 19 16 15 14 13 12 11 10 10 10 10 9 8 8 8 6 6 5 5 5 7 8 6 3 3 3 3 4 4 4 4 4 4 6 6 7
3 2 3 4 3 5 7 9 9 8 13 16 17 17 15 14 13 11 11 11 10 9 9 9 9 8 7 6 5 6 5 5 7 7 8 7 4 3 3 3 4 4 5 4 4 4 5 5 5
3 2 1 3 4 6 11 9 8 10 15 16 16 14 14 14 12 10 11 11 10 9 9 8 9 8 7 6 5 4 5 6 6 6 8 8 6 4 3 2 2 3 5 5 5 4 4 3 2
1 2 2 2 3 5 10 6 7 14 15 15 15 14 14 13 12 13 13 13 12 10 9 8 9 8 8 7 6 5 5 6 5 5 7 7 7 5 3 2 2 3 4 4 3 3 2 2 2
3 3 1 4 3 5 9 5 7 13 14 14 13 14 13 11 12 12 13 11 11 10 9 9 9 9 8 6 5 4 4 4 5 6 6 6 6 6 4 2 2 3 2 2 2 2 1 1 1
3 1 3 5 3 4 6 6 8 11 13 13 13 13 12 10 10 10 12 12 11 11 10 8 8 9 8 6 4 4 4 4 4 5 5 5 5 6 4 2 2 2 1 1 2 1 2 1 1
4 3 4 5 4 3 4 6 11 11 12 12 11 10 11 11 10 10 11 12 11 10 10 9 8 8 7 4 3 2 2 2 3 4 5 5 5 5 4 2 2 2 1 0 0 1 1 2 2
4 5 7 8 4 2 5 7 11 11 10 10 10 10 11 11 9 10 12 12 10 9 9 8 7 7 6 4 3 3 2 2 2 3 5 5 5 5 4 2 2 1 1 1 1 1 0 1 1
4 6 7 6 3 3 5 5 7 10 12 12 12 12 12 10 9 11 11 11 11 10 9 9 8 7 6 5 4 3 3 2 2 2 3 5 5 4 3 2 2 2 1 1 1 1 1 1 1
6 6 7 6 3 2 5 1 3 4 6 7 8 10 12 14 14 12 11 11 10 10 10 10 8 7 6 5 3 2 1 1 0 1 2 2 4 4 3 3 2 2 2 2 1 1 2 1 1
7 8 7 4 0 2 2 2 5 5 5 6 8 9 11 11 11 12 12 12 12 12 10 9 9 8 7 6 5 5 4 3 3 2 2 2 3 3 4 4 3 3 2 2 2 2 2 2 1
7 6 4 3 1 1 2 3 6 2 5 8 10 11 11 12 14 14 14 14 13 12 11 9 9 8 7 7 6 6 4 4 2 2 2 2 2 2 3 3 3 2 2 2 2 1 1 2 2
4 3 5 5 5 2 3 2 5 5 9 8 9 10 10 12 14 14 13 12 11 11 10 10 10 9 8 7 7 7 6 5 3 3 3 2 1 1 2 3 3 3 2 3 2 2 2 1 1
2 5 4 5 4 4 3 2 6 7 8 9 10 10 10 10 13 13 13 12 11 11 11 11 11 10 9 8 8 8 7 6 6 5 4 3 2 2 3 3 2 2 3 3 2 1 1 1 1
4 8 7 4 4 4 2 3 7 5 4 4 6 7 8 8 10 13 13 13 12 12 12 12 12 11 10 9 8 7 7 6 5 5 4 5 4 4 3 3 3 3 3 3 2 1 1 1 1
2 2 7 7 3 1 3 4 5 2 3 3 4 5 6 7 8 11 11 11 11 11 11 12 12 11 10 9 7 6 7 6 6 5 5 4 4 4 4 4 3 3 2 3 3 1 1 1 1
5 5 5 5 4 2 3 2 3 2 2 2 4 5 5 5 5 6 6 8 9 9 9 11 11 12 10 9 8 8 7 7 6 5 4 4 4 3 4 4 4 3 2 2 2 2 1 1 1
1 3 4 3 5 6 3 5 5 7 7 6 5 5 5 5 6 4 3 5 7 7 8 9 10 10 10 10 9 8 7 6 6 5 5 4 3 4 4 4 4 3 3 3 2 2 2 2 1
5 5 6 4 2 4 4 6 3 4 5 7 7 6 6 6 5 5 4 3 5 6 7 8 9 10 10 9 8 8 7 6 6 6 6 5 5 4 4 3 3 4 3 4 4 4 3 2 2
Wind_Direction
167 159 158 168 43 53 80 101 107 89 73 74 84 87 86 72 102 130 144 137 133 136 138 132 129 123 122 121 121 126 129 127 125 123 122 122 122 123 122 123 123 122 121 121 121 119 116 115 116
159 161 161 52 77 79 78 106 98 102 118 107 84 84 79 70 86 113 128 137 134 136 135 131 129 124 124 122 121 126 129 128 127 126 126 126 126 126 125 127 127 125 126 126 126 124 121 121 122
168 176 135 61 103 139 130 119 115 113 115 102 90 71 78 105 117 129 143 139 132 131 132 133 130 128 128 127 125 125 129 130 130 131 131 131 131 131 132 133 132 133 134 136 135 133 132 131 129
157 120 43 76 124 154 133 132 121 115 98 91 100 80 76 116 132 136 139 138 132 132 135 136 132 131 132 132 131 129 130 133 133 134 135 136 136 137 139 142 141 142 144 146 149 151 149 149 146
130 92 58 56 88 105 125 132 127 114 105 100 100 99 83 92 122 133 138 138 137 137 140 138 135 135 135 136 135 134 134 137 141 143 143 143 144 145 148 151 152 154 157 161 165 169 171 176 181
80 72 83 96 107 119 137 130 110 106 113 112 107 106 101 126 130 139 139 140 142 142 141 141 140 140 140 141 141 140 140 143 148 152 153 154 156 157 161 165 167 170 176 181 184 190 197 203 211
134 100 147 142 140 134 147 132 122 123 130 131 126 106 119 139 141 140 139 139 142 143 142 144 147 146 146 147 147 149 149 150 155 159 162 166 169 172 175 180 184 189 194 198 201 206 212 220 232
159 101 57 131 139 131 144 129 131 131 125 133 130 129 150 157 142 136 136 139 142 145 148 148 150 151 153 154 154 154 155 158 160 166 172 175 178 182 188 193 199 204 208 211 212 219 227 235 246
133 85 183 183 154 153 135 116 122 114 122 132 117 133 149 145 138 136 137 140 149 153 158 157 160 162 161 162 163 163 164 167 169 176 180 183 189 194 202 208 209 213 216 218 221 226 234 245 254
132 158 206 206 187 157 143 135 134 116 114 109 109 120 137 142 144 147 153 158 161 166 172 170 169 171 173 171 167 171 173 177 181 187 193 199 207 210 211 216 220 222 225 227 229 226 233 245 253
151 179 208 212 206 162 145 135 130 127 138 148 146 148 150 149 153 157 161 165 168 171 174 173 172 174 175 169 167 174 177 181 189 192 197 201 208 216 218 213 230 234 232 232 234 226 227 226 230
144 198 190 198 195 146 144 137 127 140 159 158 152 152 155 158 165 167 163 164 163 166 171 172 171 170 174 169 169 174 178 188 196 199 192 188 190 202 208 206 219 222 230 226 219 220 231 234 232
138 204 172 168 140 139 127 131 130 134 141 148 149 153 160 165 169 169 161 159 159 162 167 168 167 166 168 164 172 169 178 190 198 199 193 188 187 198 201 211 212 215 217 216 215 220 229 237 231
176 182 165 150 141 136 126 126 116 144 145 150 156 161 166 167 168 166 164 166 169 171 171 170 166 168 165 171 175 173 180 186 186 189 193 191 193 190 189 202 214 220 217 216 212 218 221 232 238
126 104 349 161 133 139 116 107 144 154 151 157 163 165 167 170 169 171 174 174 174 175 175 173 172 169 169 175 182 177 183 182 189 194 195 192 192 186 179 198 220 225 217 212 210 221 214 233 247
30 53 319 262 163 153 119 156 167 158 155 164 170 172 172 172 175 176 173 173 173 171 174 179 175 170 175 176 176 171 174 174 182 186 196 199 192 183 175 199 224 223 217 198 200 208 199 237 241
13 311 258 272 214 159 135 168 174 167 162 170 175 177 176 175 175 177 172 170 171 171 172 175 167 168 173 173 171 172 169 169 177 181 194 204 198 185 173 197 214 197 191 211 217 172 179 214 252
257 261 259 250 223 153 145 171 170 174 167 175 178 175 171 173 175 174 173 173 171 170 169 168 164 167 167 164 156 157 155 179 188 191 201 197 193 184 169 179 197 167 146 258 183 171 190 202 218
223 260 270 266 247 149 170 169 177 178 166 173 179 177 176 178 172 172 173 169 165 165 164 167 167 171 162 160 161 164 189 197 201 204 196 190 189 183 165 177 188 152 145 188 168 154 197 242 182
243 263 273 286 255 168 172 182 190 180 181 180 182 184 181 178 171 173 173 169 169 170 175 173 174 172 173 173 172 174 177 194 193 193 187 186 181 180 169 163 178 163 154 146 97 114 129 273 135
256 241 251 249 310 30 114 16 222 213 185 175 179 184 183 182 179 175 173 172 171 177 181 180 177 173 176 170 156 145 98 59 87 189 200 203 179 174 161 167 170 172 159 176 189 146 141 182 294
248 234 233 246 38 287 132 199 260 211 192 188 190 192 191 186 180 177 176 176 180 187 181 176 174 173 175 167 164 167 174 191 211 205 196 199 185 178 169 168 170 174 166 179 199 142 146 145 214
229 239 238 255 172 7 14 122 279 220 200 209 205 201 197 189 182 181 182 183 183 184 181 179 172 176 180 174 174 174 182 196 197 183 177 191 202 193 180 169 161 163 170 177 172 143 147 154 176
196 41 14 33 64 21 275 155 274 231 209 202 207 206 200 192 187 184 185 180 183 184 181 179 176 183 183 178 178 179 182 183 176 186 188 201 217 225 203 179 168 173 177 180 186 172 159 166 180
108 89 28 5 11 261 266 143 250 236 207 192 198 204 196 193 187 183 182 182 183 182 185 185 183 188 187 183 184 186 187 182 188 194 191 189 199 215 221 201 186 187 190 185 175 169 180 190 188
209 141 159 190 221 269 311 219 253 252 205 180 182 175 177 182 185 183 185 186 186 184 184 183 185 189 190 189 191 189 185 186 192 188 183 188 200 210 206 190 185 186 183 181 165 167 202 196 212
169 175 168 143 154 166 275 277 310 29 73 108 127 135 154 167 174 178 181 180 184 185 186 184 184 187 188 188 185 188 189 187 186 189 187 192 200 204 191 184 187 190 179 170 160 171 209 178 210
147 152 89 111 150 226 288 273 243 210 175 123 125 130 135 151 155 167 172 179 184 185 183 182 182 187 187 185 189 193 196 192 186 184 189 190 192 195 187 186 191 193 190 181 168 170 189 149 217
37 74 101 119 153 158 208 259 227 198 180 156 149 154 148 155 150 137 154 180 178 181 180 181 185 185 185 188 190 190 191 187 181 185 196 192 185 185 187 188 186 185 192 184 169 187 181 181 215
158 156 137 144 235 163 171 253 280 185 171 153 145 150 157 158 144 138 141 152 166 173 178 183 189 190 191 188 185 188 189 183 184 188 198 196 192 194 188 177 175 180 184 183 182 197 194 191 203
Height
1510 1510 1511 1512 1514 1520 1520 1511 1505 1504 1505 1506 1505 1507 1510 1514 1518 1527 1524 1524 1525 1525 1525 1526 1527 1527 1528 1528 1528 1527 1529 1531 1533 1535 1536 1538 1539 1540 1541 1542 1544 1545 1546 1546 1547 1548 1549 1549 1550
1510 1511 1512 1512 1518 1529 1522 1509 1507 1505 1507 1507 1508 1509 1512 1516 1518 1520 1522 1525 1526 1526 1527 1527 1528 1529 1529 1530 1529 1528 1529 1532 1534 1536 1538 1539 1540 1542 1542 1544 1545 1546 1547 1547 1548 1549 1549 1550 1551
1511 1511 1513 1514 1520 1525 1519 1508 1506 1507 1507 1506 1510 1512 1515 1519 1520 1521 1523 1525 1527 1528 1528 1529 1530 1530 1531 1532 1532 1532 1533 1535 1537 1538 1539 1540 1542 1543 1544 1545 1546 1547 1547 1548 1549 1550 1550 1551 1552
1511 1512 1513 1518 1520 1512 1508 1506 1505 1507 1508 1509 1510 1515 1518 1520 1521 1522 1524 1526 1528 1529 1530 1531 1531 1532 1533 1533 1534 1535 1536 1537 1538 1539 1540 1542 1543 1544 1545 1546 1547 1548 1549 1549 1550 1551 1551 1552 1553
1511 1512 1517 1522 1516 1508 1505 1504 1504 1506 1508 1511 1511 1516 1521 1522 1522 1524 1525 1528 1529 1530 1531 1532 1533 1534 1535 1535 1536 1537 1538 1539 1540 1541 1542 1543 1544 1545 1546 1547 1548 1549 1549 1550 1551 1551 1552 1553 1553
1511 1512 1523 1526 1516 1507 1505 1504 1505 1508 1511 1514 1514 1518 1523 1524 1524 1525 1527 1529 1530 1531 1532 1533 1534 1535 1536 1537 1538 1538 1539 1540 1541 1542 1543 1544 1545 1546 1547 1548 1549 1549 1550 1551 1551 1552 1552 1553 1554
1512 1515 1522 1520 1516 1511 1506 1505 1505 1509 1512 1514 1515 1519 1524 1526 1526 1527 1529 1531 1532 1533 1534 1535 1536 1537 1538 1539 1539 1540 1541 1542 1543 1543 1544 1545 1546 1547 1548 1548 1549 1550 1550 1551 1552 1552 1553 1553 1554
1510 1515 1519 1517 1515 1512 1504 1504 1506 1507 1512 1515 1515 1518 1523 1526 1527 1529 1530 1532 1533 1535 1536 1536 1538 1538 1539 1540 1541 1542 1542 1543 1544 1545 1545 1546 1547 1548 1548 1549 1549 1550 1551 1551 1552 1552 1553 1553 1554
1509 1517 1523 1515 1511 1508 1504 1505 1508 1509 1511 1514 1515 1516 1520 1524 1527 1529 1531 1533 1534 1536 1537 1537 1539 1540 1540 1541 1542 1543 1544 1544 1545 1546 1546 1547 1547 1548 1549 1549 1550 1550 1551 1551 1552 1552 1553 1553 1554
1507 1518 1514 1505 1503 1503 1503 1504 1507 1511 1513 1515 1517 1519 1522 1525 1527 1529 1530 1532 1534 1535 1537 1538 1539 1540 1541 1542 1543 1544 1545 1545 1546 1547 1547 1547 1548 1548 1549 1549 1550 1550 1551 1551 1552 1552 1553 1553 1554
1503 1508 1503 1501 1500 1501 1502 1504 1506 1509 1514 1514 1515 1519 1522 1525 1527 1529 1530 1532 1533 1535 1537 1538 1539 1541 1542 1543 1543 1544 1545 1546 1546 1547 1547 1548 1548 1548 1548 1549 1550 1550 1551 1551 1552 1552 1552 1553 1553
1501 1500 1499 1499 1499 1499 1501 1503 1506 1507 1511 1513 1514 1518 1522 1525 1527 1528 1530 1532 1534 1535 1537 1538 1539 1540 1541 1543 1544 1544 1545 1546 1546 1547 1547 1548 1548 1548 1548 1549 1549 1550 1550 1551 1551 1551 1551 1552 1552
1500 1499 1497 1497 1497 1498 1500 1503 1505 1509 1511 1514 1516 1519 1522 1524 1526 1528 1530 1532 1533 1535 1536 1538 1539 1540 1541 1543 1544 1544 1545 1546 1546 1547 1547 1547 1547 1548 1548 1548 1549 1549 1549 1550 1550 1550 1551 1551 1551
1498 1498 1497 1497 1497 1498 1500 1504 1506 1511 1512 1515 1517 1519 1521 1524 1526 1528 1530 1531 1533 1534 1536 1537 1538 1540 1541 1542 1543 1544 1545 1546 1546 1547 1547 1547 1547 1547 1548 1548 1548 1548 1548 1549 1549 1549 1549 1550 1550
1497 1499 1498 1496 1496 1499 1501 1509 1507 1509 1512 1514 1517 1518 1520 1523 1525 1527 1528 1530 1531 1533 1535 1536 1537 1539 1540 1541 1543 1544 1545 1545 1546 1546 1547 1547 1547 1547 1547 1547 1547 1547 1547 1547 1547 1548 1548 1548 1548
1499 1505 1510 1498 1495 1498 1505 1517 1509 1509 1511 1513 1516 1518 1519 1521 1523 1525 1527 1529 1531 1532 1534 1535 1537 1538 1539 1541 1542 1543 1544 1544 1545 1545 1546 1546 1547 1547 1546 1546 1546 1546 1546 1546 1546 1546 1546 1546 1547
1509 1517 1513 1503 1495 1496 1503 1512 1508 1508 1509 1512 1514 1516 1518 1520 1522 1524 1526 1527 1530 1532 1533 1535 1536 1537 1538 1540 1541 1542 1543 1544 1544 1545 1545 1546 1546 1546 1546 1546 1545 1545 1545 1545 1545 1545 1545 1545 1545
1519 1516 1511 1506 1497 1498 1503 1506 1504 1506 1508 1510 1513 1515 1517 1519 1520 1523 1525 1526 1528 1530 1532 1534 1535 1536 1538 1539 1540 1542 1543 1543 1544 1544 1544 1545 1545 1545 1545 1545 1544 1544 1544 1544 1544 1543 1543 1543 1543
1507 1510 1510 1501 1493 1499 1504 1505 1504 1504 1506 1509 1511 1513 1514 1517 1519 1521 1523 1525 1527 1529 1530 1532 1534 1535 1536 1537 1539 1540 1541 1542 1543 1543 1543 1544 1544 1544 1544 1544 1543 1543 1543 1543 1542 1542 1542 1542 1542
1503 1510 1508 1499 1492 1498 1504 1506 1503 1503 1504 1505 1508 1510 1512 1515 1517 1519 1521 1523 1525 1527 1528 1530 1532 1533 1534 1536 1538 1539 1540 1541 1541 1542 1542 1542 1543 1543 1543 1543 1543 1542 1542 1541 1541 1541 1540 1540 1540
1502 1506 1505 1502 1496 1497 1504 1513 1508 1504 1503 1505 1506 1507 1509 1511 1514 1516 1519 1521 1523 1525 1526 1528 1530 1531 1533 1535 1536 1538 1539 1539 1540 1540 1540 1541 1541 1542 1542 1541 1541 1541 1541 1540 1540 1539 1539 1539 1539
1504 1492 1493 1495 1506 1516 1509 1530 1514 1506 1506 1505 1505 1506 1507 1509 1512 1514 1516 1517 1520 1522 1524 1526 1528 1530 1531 1533 1534 1535 1536 1536 1537 1538 1539 1539 1540 1540 1541 1540 1540 1540 1539 1539 1539 1538 1538 1538 1538
1492 1486 1489 1492 1504 1515 1514 1526 1521 1507 1508 1504 1502 1502 1504 1506 1508 1511 1512 1514 1517 1520 1522 1524 1526 1527 1529 1531 1532 1533 1534 1535 1536 1537 1537 1538 1538 1539 1539 1539 1539 1538 1538 1538 1537 1537 1537 1537 1537
1481 1488 1494 1501 1513 1531 1521 1526 1526 1510 1502 1498 1498 1499 1500 1503 1506 1508 1510 1513 1515 1518 1520 1522 1524 1525 1527 1528 1529 1531 1532 1533 1534 1534 1535 1536 1536 1536 1537 1537 1537 1537 1536 1536 1536 1535 1535 1535 1535
1484 1505 1527 1531 1539 1537 1519 1522 1519 1497 1492 1492 1493 1495 1497 1500 1502 1505 1508 1510 1512 1514 1517 1519 1521 1522 1524 1525 1526 1528 1529 1530 1531 1532 1533 1533 1534 1534 1534 1534 1534 1534 1534 1534 1534 1534 1534 1534 1534
1487 1500 1527 1540 1543 1536 1521 1523 1507 1490 1488 1489 1490 1492 1495 1497 1499 1501 1504 1507 1509 1511 1513 1515 1517 1519 1521 1523 1524 1526 1527 1528 1529 1530 1531 1531 1531 1532 1532 1532 1532 1532 1533 1533 1533 1533 1533 1533 1532
1487 1496 1499 1519 1526 1535 1527 1514 1499 1490 1490 1490 1491 1492 1493 1495 1498 1500 1502 1504 1507 1509 1510 1512 1514 1516 1518 1520 1522 1524 1525 1525 1526 1527 1528 1528 1529 1530 1530 1530 1530 1531 1531 1531 1531 1531 1531 1531 1531
1478 1486 1503 1518 1534 1540 1530 1521 1515 1499 1495 1492 1492 1492 1493 1495 1497 1499 1500 1502 1504 1506 1508 1510 1512 1514 1515 1518 1519 1520 1522 1523 1524 1525 1525 1526 1526 1527 1527 1528 1528 1528 1529 1529 1529 1529 1529 1529 1529
1484 1490 1501 1514 1519 1534 1540 1526 1495 1493 1491 1490 1491 1492 1493 1494 1495 1497 1499 1501 1502 1504 1506 1507 1509 1511 1513 1514 1516 1517 1518 1519 1520 1522 1523 1524 1524 1524 1525 1525 1526 1526 1527 1527 1527 1527 1527 1527 1526
1476 1485 1497 1514 1519 1522 1530 1521 1487 1487 1487 1487 1488 1490 1492 1493 1494 1496 1498 1499 1501 1502 1503 1505 1506 1508 1509 1511 1513 1513 1515 1516 1517 1518 1520 1521 1522 1522 1522 1523 1523 1523 1524 1524 1524 1524 1525 1524 1524